Stations météo

réclame
Mon MeteoGroup
Ponferrada, Espagne (8053): Température de l'air & dewpoint: 29.07.2020 18:00:00 - 04.08.2020 18:00:00 (CEST)Ponferrada, Espagne (8053): Vitesse du vent: 29.07.2020 18:00:00 - 04.08.2020 18:00:00 (CEST)Ponferrada, Espagne (8053): Direction du vent: 29.07.2020 18:00:00 - 04.08.2020 18:00:00 (CEST)Ponferrada, Espagne (8053): reduced air pressure: 29.07.2020 18:00:00 - 04.08.2020 18:00:00 (CEST)Ponferrada, Espagne (8053): visibility: 29.07.2020 18:00:00 - 04.08.2020 18:00:00 (CEST)Ponferrada, Espagne (8053): Quantités de précipitations: 29.07.2020 18:00:00 - 04.08.2020 18:00:00 (CEST)
Date & Time tt [°C] td [°C] ff [km/h] ff [knt] dd ppp [hPa] vv [km] rr [mm]
04.08.2020 18:00:00 31,7 8,6 9 5 W 1011,0 20 0,0
04.08.2020 17:00:00 31,4 5,0 8 4 NW 1011,8 20 -
04.08.2020 16:00:00 30,3 -9,4 8 4 W 1013,0 20 0,0
04.08.2020 15:00:00 28,0 2,2 5 3 N 1014,0 20 0,0
04.08.2020 14:00:00 25,8 10,8 8 4 WNW 1015,3 20 -
04.08.2020 13:00:00 23,3 12,9 5 3 NW 1016,4 19 0,0
04.08.2020 12:00:00 21,4 13,3 5 3 WNW 1017,3 20 0,0
04.08.2020 11:00:00 19,0 13,2 5 3 WNW 1018,2 20 -
04.08.2020 10:00:00 16,0 12,2 2 1 NW 1019,4 20 0,0
04.08.2020 09:00:00 14,7 12,2 4 2 NW 1019,4 20 0,0
04.08.2020 08:00:00 14,0 11,7 2 1 E 1019,5 20 -
04.08.2020 07:00:00 14,6 11,9 0 0 N 1019,1 20 0,0
04.08.2020 06:00:00 15,4 12,3 2 1 SE 1018,8 20 0,0
04.08.2020 05:00:00 16,3 12,6 4 2 ESE 1018,5 20 -
04.08.2020 04:00:00 17,2 13,1 4 2 SW 1018,3 20 0,0
04.08.2020 03:00:00 18,2 13,5 4 2 SSW 1018,1 20 0,0
04.08.2020 02:00:00 18,9 13,5 4 2 SW 1018,0 20 -
04.08.2020 01:00:00 19,8 13,7 4 2 WSW 1017,7 20 0,0
04.08.2020 00:00:00 20,8 14,0 8 4 WSW 1017,3 20 0,0
03.08.2020 23:00:00 22,2 13,5 5 3 W 1016,5 20 -
03.08.2020 22:00:00 24,0 12,6 5 3 W 1015,2 20 0,0
03.08.2020 21:00:00 26,3 12,0 11 6 NW 1014,3 20 0,0
03.08.2020 20:00:00 27,8 11,8 13 7 WNW 1013,8 20 -
03.08.2020 19:00:00 28,8 10,9 13 7 WNW 1013,3 20 0,0
03.08.2020 18:00:00 29,0 11,1 11 6 WNW 1013,3 20 0,0
03.08.2020 17:00:00 28,7 11,3 11 6 WNW 1013,6 20 -
03.08.2020 16:00:00 28,2 11,7 15 8 WNW 1014,6 20 0,0
03.08.2020 15:00:00 27,8 10,9 9 5 WSW 1015,1 20 0,0
03.08.2020 14:00:00 26,4 10,9 5 3 W 1016,0 20 -
03.08.2020 13:00:00 23,7 8,9 8 4 NW 1017,4 20 0,0
03.08.2020 12:00:00 21,3 10,1 5 3 W 1018,5 20 0,0
03.08.2020 11:00:00 19,0 11,3 4 2 WSW 1019,2 20 -
03.08.2020 10:00:00 17,3 11,6 4 2 W 1020,2 20 0,0
03.08.2020 09:00:00 15,4 11,0 4 2 SE 1020,5 20 0,0
03.08.2020 08:00:00 14,3 10,7 0 0 N 1020,4 20 -
03.08.2020 07:00:00 14,5 10,5 4 2 SSE 1019,8 20 0,0
03.08.2020 06:00:00 15,2 11,2 2 1 SE 1019,3 20 0,0
03.08.2020 05:00:00 16,0 11,4 5 3 SE 1019,3 20 -
03.08.2020 04:00:00 17,3 11,6 2 1 ESE 1019,0 20 0,0
03.08.2020 03:00:00 18,6 11,9 5 3 W 1018,6 20 0,0
03.08.2020 02:00:00 19,5 12,0 4 2 WSW 1018,6 20 -
03.08.2020 01:00:00 20,3 11,5 5 3 WSW 1018,3 20 0,0
03.08.2020 00:00:00 20,9 12,1 5 3 WSW 1017,7 20 0,0
02.08.2020 23:00:00 21,7 12,3 5 3 W 1018,0 20 -
02.08.2020 22:00:00 23,0 12,0 8 4 WSW 1017,1 20 0,0
02.08.2020 21:00:00 24,8 9,5 9 5 WSW 1016,4 20 0,0
02.08.2020 20:00:00 26,5 8,0 13 7 WNW 1015,5 20 -
02.08.2020 19:00:00 28,5 8,2 13 7 WNW 1015,0 20 0,0
02.08.2020 18:00:00 28,8 3,6 8 4 W 1015,3 20 0,0
02.08.2020 17:00:00 27,8 8,6 9 5 W 1015,8 20 -
02.08.2020 16:00:00 26,5 9,4 8 4 W 1016,8 20 0,0
02.08.2020 15:00:00 25,5 9,7 5 3 WNW 1018,0 20 0,0
02.08.2020 14:00:00 24,2 11,5 5 3 WSW 1018,8 20 -
02.08.2020 13:00:00 22,1 12,1 5 3 S 1019,7 20 0,0
02.08.2020 12:00:00 20,6 12,0 4 2 NW 1020,4 20 0,0
02.08.2020 11:00:00 18,2 12,2 4 2 SW 1021,4 20 -
02.08.2020 10:00:00 16,0 11,6 4 2 S 1021,7 20 0,0
02.08.2020 09:00:00 14,7 10,9 5 3 SW 1022,0 20 0,0
02.08.2020 08:00:00 14,3 11,4 2 1 ESE 1021,7 20 -
02.08.2020 07:00:00 14,5 11,1 5 3 SSE 1021,8 20 0,0
02.08.2020 06:00:00 14,8 11,2 4 2 ESE 1021,4 20 0,0
02.08.2020 05:00:00 15,8 11,8 4 2 SW 1021,0 20 -
02.08.2020 04:00:00 16,5 12,1 5 3 SW 1020,5 20 0,0
02.08.2020 03:00:00 17,0 12,3 5 3 SSW 1020,6 20 0,0
02.08.2020 02:00:00 17,7 12,8 5 3 WSW 1020,6 20 -
02.08.2020 01:00:00 18,6 12,8 5 3 SW 1020,2 20 0,0
02.08.2020 00:00:00 19,5 13,0 8 4 WSW 1019,9 20 0,0
01.08.2020 23:00:00 20,8 13,0 5 3 WSW 1019,4 20 -
01.08.2020 22:00:00 23,0 13,2 8 4 WSW 1018,4 20 0,0
01.08.2020 21:00:00 25,6 11,7 13 7 WNW 1017,3 20 0,0
01.08.2020 20:00:00 27,3 10,9 13 7 WNW 1016,6 20 -
01.08.2020 19:00:00 28,6 11,6 15 8 WNW 1016,2 20 0,0
01.08.2020 18:00:00 29,2 12,2 13 7 WNW 1016,2 20 0,0
01.08.2020 17:00:00 29,5 12,4 15 8 WNW 1016,2 20 -
01.08.2020 16:00:00 29,6 12,1 11 6 WNW 1016,4 20 0,0
01.08.2020 15:00:00 28,9 12,7 13 7 WNW 1016,8 20 0,0
01.08.2020 14:00:00 28,0 12,8 11 6 WNW 1017,5 8 -
01.08.2020 13:00:00 26,0 13,5 8 4 WNW 1018,2 3,2 0,0
01.08.2020 12:00:00 24,2 13,7 4 2 W 1019,0 6 0,0
01.08.2020 11:00:00 21,7 14,1 5 3 WNW 1019,3 4,5 -
01.08.2020 10:00:00 20,1 14,2 4 2 W 1019,6 6 0,0
01.08.2020 09:00:00 18,6 13,5 4 2 N 1019,9 14 0,0
01.08.2020 08:00:00 16,1 12,3 4 2 SSE 1020,1 19 -
01.08.2020 07:00:00 16,5 12,5 4 2 SE 1019,9 19 0,0
01.08.2020 06:00:00 17,0 12,3 4 2 SSE 1019,4 18 0,0
01.08.2020 05:00:00 18,0 12,9 2 1 SE 1018,8 20 -
01.08.2020 04:00:00 19,5 13,4 5 3 W 1018,5 3,5 0,0
01.08.2020 03:00:00 20,4 13,6 4 2 WNW 1018,4 10 0,0
01.08.2020 02:00:00 21,2 13,4 4 2 W 1018,3 9 -
01.08.2020 01:00:00 22,5 13,8 5 3 W 1017,8 2,1 0,0
01.08.2020 00:00:00 23,4 13,8 5 3 WNW 1017,3 1,4 0,0
31.07.2020 23:00:00 24,3 13,8 11 6 W 1016,7 20 -
31.07.2020 22:00:00 26,7 12,0 9 5 WSW 1015,1 20 0,0
31.07.2020 21:00:00 29,5 10,6 11 6 WNW 1013,4 20 0,0
31.07.2020 20:00:00 31,9 8,8 9 5 NW 1012,4 20 -
31.07.2020 19:00:00 34,3 5,7 13 7 WNW 1011,2 20 0,0
31.07.2020 18:00:00 34,4 10,3 11 6 NW 1011,2 20 0,0
31.07.2020 17:00:00 35,3 8,2 11 6 WNW 1011,0 30 -
31.07.2020 16:00:00 34,2 10,7 8 4 WNW 1011,3 20 0,0
31.07.2020 15:00:00 32,7 13,8 4 2 NE 1011,8 20 0,0
31.07.2020 14:00:00 31,2 12,5 5 3 NW 1012,8 30 -
31.07.2020 13:00:00 - - - - - - - -
31.07.2020 12:00:00 - - - - - - - -
31.07.2020 11:00:00 - - - - - - - -
31.07.2020 10:00:00 - - - - - - - -
31.07.2020 09:00:00 - - - - - - - -
31.07.2020 08:00:00 - - - - - - - -
31.07.2020 07:00:00 - - - - - - - -
31.07.2020 06:00:00 - - - - - - - -
31.07.2020 05:00:00 - - - - - - - -
31.07.2020 04:00:00 - - - - - - - -
31.07.2020 03:00:00 - - - - - - - -
31.07.2020 02:00:00 - - - - - - - -
31.07.2020 01:00:00 - - - - - - - -
31.07.2020 00:00:00 - - - - - - - -
30.07.2020 23:00:00 - - - - - - - -
30.07.2020 22:00:00 - - - - - - - -
30.07.2020 21:00:00 - - - - - - - -
30.07.2020 20:00:00 - - - - - - - -
30.07.2020 19:00:00 - - - - - - - -
30.07.2020 18:00:00 26,7 18,8 8 4 ENE 1009,8 16 0,2
30.07.2020 17:00:00 28,1 16,7 4 2 SE 1008,4 30 -
30.07.2020 16:00:00 - - - - - - - -
30.07.2020 15:00:00 34,4 14,8 8 4 WNW 1007,5 19 0,0
30.07.2020 14:00:00 - - - - - - - -
30.07.2020 13:00:00 - - - - - - - -
30.07.2020 12:00:00 28,6 16,2 8 4 W 1010,4 20 0,0
30.07.2020 11:00:00 25,6 15,9 5 3 W 1011,5 20 -
30.07.2020 10:00:00 23,8 16,1 4 2 SW 1012,3 20 0,0
30.07.2020 09:00:00 21,6 15,7 2 1 NNE 1012,8 20 0,0
30.07.2020 08:00:00 19,3 15,2 4 2 ESE 1013,0 20 -
30.07.2020 07:00:00 19,8 15,0 2 1 W 1012,7 20 0,0
30.07.2020 06:00:00 20,3 15,7 2 1 NE 1012,4 20 0,0
30.07.2020 05:00:00 21,2 15,5 2 1 SE 1012,3 20 -
30.07.2020 04:00:00 22,7 15,5 2 1 W 1012,2 20 0,0
30.07.2020 03:00:00 24,0 15,5 2 1 ENE 1012,3 20 0,0
30.07.2020 02:00:00 24,9 15,8 2 1 SE 1012,1 20 -
30.07.2020 01:00:00 25,8 15,8 4 2 SE 1011,9 20 0,0
30.07.2020 00:00:00 26,7 15,7 5 3 ESE 1011,5 20 0,0
29.07.2020 23:00:00 28,6 17,8 4 2 SE 1010,7 20 -
29.07.2020 22:00:00 31,1 17,4 5 3 WSW 1009,6 20 0,0
29.07.2020 21:00:00 33,5 17,2 8 4 WNW 1008,5 20 0,0
29.07.2020 20:00:00 36,0 14,6 11 6 WNW 1007,5 20 -
29.07.2020 19:00:00 36,6 12,1 8 4 WNW 1007,6 20 0,0
29.07.2020 18:00:00 36,6 13,4 5 3 NW 1008,0 20 0,0

tt = Température de l'air
td = dewpoint
ff = Vitesse du vent
dd = Direction du vent
ppp = reduced air pressure
vv = visibility
rr = Quantités de précipitations

stations d'obs. à proximité